When you browse on this site, cookies collect data to enhance your experience and personalize the content and advertising you see.
Visit our Privacy Policy to learn more. By continuing to use the site, you agree to this use of cookies and data.
  • In Slovakia
  • List of Countries
  • For 7 days
  • Water Temperature
  • Satellite Maps
  • Weather Map
  • Weather Widgets
  • user-avatar
    Login

    Hourly Weather Cuiaba

    Today, 11 December, Tuesday

    Time Temperature Precipitation Wind Pressure Humidity
    00:00 +27°C° 0 mm 3 mps 742 mmHg 81%
    01:00 +26°C° 0 mm 3 mps 742 mmHg 82%
    02:00 +26°C° 0 mm 3 mps 742 mmHg 82%
    03:00 +26°C° 0 mm 2 mps 742 mmHg 83%
    04:00 +25°C° 0 mm 2 mps 742 mmHg 84%
    05:00 +25°C° 0 mm 2 mps 742 mmHg 85%
    06:00 +27°C° 0 mm 3 mps 743 mmHg 78%
    07:00 +28°C° 0 mm 3 mps 743 mmHg 72%
    08:00 +30°C° 0 mm 4 mps 744 mmHg 65%
    09:00 +32°C° 0 mm 4 mps 743 mmHg 60%
    10:00 +34°C° 0 mm 4 mps 743 mmHg 54%
    11:00 +36°C° 0 mm 3 mps 743 mmHg 49%
    12:00 +36°C° 0 mm 3 mps 742 mmHg 48%
    13:00 +36°C° 0 mm 3 mps 741 mmHg 47%
    14:00 +36°C° 0 mm 2 mps 740 mmHg 47%
    15:00 +36°C° 0.2 mm 2 mps 740 mmHg 49%
    16:00 +35°C° 0.2 mm 2 mps 740 mmHg 52%
    17:00 +34°C° 0.2 mm 1 mps 739 mmHg 55%
    18:00 +32°C° 0.1 mm 1 mps 739 mmHg 59%
    19:00 +31°C° 0.1 mm 2 mps 740 mmHg 62%
    20:00 +29°C° 0.1 mm 2 mps 740 mmHg 66%
    21:00 +29°C° 0 mm 2 mps 741 mmHg 68%
    22:00 +29°C° 0 mm 2 mps 741 mmHg 69%
    23:00 +28°C° 0 mm 3 mps 741 mmHg 71%

    Tomorrow, 12 December, Wednesday

    Time Temperature Precipitation Wind Pressure Humidity
    00:00 +28°C° 0 mm 3 mps 741 mmHg 73%
    01:00 +27°C° 0 mm 2 mps 741 mmHg 74%
    02:00 +27°C° 0 mm 2 mps 740 mmHg 76%
    03:00 +26°C° 0 mm 2 mps 740 mmHg 78%
    04:00 +26°C° 0 mm 2 mps 741 mmHg 79%
    05:00 +26°C° 0 mm 2 mps 741 mmHg 81%
    06:00 +27°C° 0 mm 2 mps 741 mmHg 75%
    07:00 +29°C° 0 mm 3 mps 742 mmHg 69%
    08:00 +31°C° 0 mm 3 mps 743 mmHg 63%
    09:00 +34°C° 0.2 mm 3 mps 742 mmHg 57%
    10:00 +35°C° 0.2 mm 3 mps 742 mmHg 51%
    11:00 +37°C° 0.2 mm 3 mps 742 mmHg 45%
    12:00 +37°C° 0.1 mm 2 mps 741 mmHg 45%
    13:00 +37°C° 0.1 mm 2 mps 741 mmHg 46%
    14:00 +35°C° 0.1 mm 1 mps 740 mmHg 46%
    15:00 +35°C° 0 mm 1 mps 739 mmHg 48%
    16:00 +35°C° 0 mm 1 mps 739 mmHg 50%
    17:00 +34°C° 0 mm 1 mps 738 mmHg 53%
    18:00 +33°C° 0 mm 1 mps 739 mmHg 55%
    19:00 +32°C° 0 mm 1 mps 739 mmHg 57%
    20:00 +30°C° 0 mm 1 mps 740 mmHg 59%
    21:00 +30°C° 0 mm 1 mps 740 mmHg 62%
    22:00 +29°C° 0 mm 2 mps 740 mmHg 65%
    23:00 +28°C° 0 mm 2 mps 740 mmHg 67%

    Day after tomorrow, 13 December, Thursday

    Time Temperature Precipitation Wind Pressure Humidity
    00:00 +28°C° 0.1 mm 2 mps 740 mmHg 70%
    01:00 +27°C° 0.1 mm 2 mps 739 mmHg 72%
    02:00 +27°C° 0.1 mm 2 mps 739 mmHg 74%
    03:00 +26°C° 0.2 mm 2 mps 739 mmHg 78%
    04:00 +26°C° 0.2 mm 2 mps 739 mmHg 81%
    05:00 +25°C° 0.2 mm 1 mps 740 mmHg 84%
    06:00 +27°C° 0.1 mm 2 mps 740 mmHg 78%
    07:00 +29°C° 0.1 mm 2 mps 741 mmHg 73%
    08:00 +30°C° 0.1 mm 3 mps 742 mmHg 67%
    09:00 +33°C° 0.6 mm 3 mps 741 mmHg 61%
    10:00 +34°C° 0.6 mm 3 mps 741 mmHg 56%
    11:00 +36°C° 0.6 mm 3 mps 741 mmHg 50%
    12:00 +36°C° 0.4 mm 2 mps 740 mmHg 50%
    13:00 +36°C° 0.4 mm 2 mps 739 mmHg 49%
    14:00 +35°C° 0.4 mm 1 mps 738 mmHg 49%
    15:00 +34°C° 0.1 mm 1 mps 738 mmHg 50%
    16:00 +34°C° 0.1 mm 1 mps 737 mmHg 51%
    17:00 +34°C° 0.1 mm 1 mps 737 mmHg 52%
    18:00 +32°C° 0 mm 1 mps 737 mmHg 56%
    19:00 +31°C° 0 mm 2 mps 738 mmHg 60%
    20:00 +29°C° 0 mm 2 mps 738 mmHg 63%
    21:00 +29°C° 0 mm 2 mps 738 mmHg 67%
    22:00 +28°C° 0 mm 2 mps 739 mmHg 70%
    23:00 +27°C° 0 mm 2 mps 739 mmHg 73%

    14 December, Friday

    Time Temperature Precipitation Wind Pressure Humidity
    00:00 +27°C° 0 mm 2 mps 738 mmHg 75%
    01:00 +26°C° 0 mm 2 mps 738 mmHg 77%
    02:00 +26°C° 0 mm 2 mps 738 mmHg 78%
    03:00 +26°C° 0 mm 2 mps 738 mmHg 79%
    04:00 +25°C° 0 mm 2 mps 738 mmHg 80%
    05:00 +25°C° 0 mm 1 mps 739 mmHg 81%
    06:00 +27°C° 0.1 mm 2 mps 740 mmHg 75%
    07:00 +29°C° 0.1 mm 3 mps 740 mmHg 70%
    08:00 +30°C° 0.1 mm 3 mps 741 mmHg 64%
    09:00 +33°C° 0.3 mm 3 mps 741 mmHg 58%
    10:00 +35°C° 0.3 mm 3 mps 741 mmHg 53%
    11:00 +36°C° 0.3 mm 3 mps 740 mmHg 47%
    12:00 +36°C° 0.1 mm 3 mps 740 mmHg 46%
    13:00 +37°C° 0.1 mm 3 mps 739 mmHg 46%
    14:00 +37°C° 0.1 mm 2 mps 738 mmHg 45%
    15:00 +36°C° 0.1 mm 2 mps 738 mmHg 47%
    16:00 +36°C° 0.1 mm 2 mps 738 mmHg 49%
    17:00 +35°C° 0.1 mm 2 mps 738 mmHg 51%
    18:00 +34°C° 0 mm 2 mps 738 mmHg 56%
    19:00 +31°C° 0 mm 2 mps 739 mmHg 60%
    20:00 +29°C° 0 mm 2 mps 740 mmHg 64%
    21:00 +29°C° 0 mm 2 mps 740 mmHg 67%
    22:00 +28°C° 0 mm 2 mps 740 mmHg 70%
    23:00 +27°C° 0 mm 2 mps 740 mmHg 73%

    15 December, Saturday

    Time Temperature Precipitation Wind Pressure Humidity
    00:00 +27°C° 0 mm 2 mps 740 mmHg 75%
    01:00 +26°C° 0 mm 2 mps 740 mmHg 77%
    02:00 +26°C° 0 mm 2 mps 740 mmHg 78%
    03:00 +26°C° 0 mm 2 mps 740 mmHg 79%
    04:00 +25°C° 0 mm 1 mps 740 mmHg 80%
    05:00 +25°C° 0 mm 1 mps 740 mmHg 82%
    06:00 +27°C° 0 mm 2 mps 741 mmHg 74%
    07:00 +29°C° 0 mm 2 mps 742 mmHg 67%
    08:00 +31°C° 0 mm 2 mps 742 mmHg 60%
    09:00 +34°C° 0.2 mm 2 mps 742 mmHg 54%
    10:00 +36°C° 0.2 mm 2 mps 742 mmHg 49%
    11:00 +37°C° 0.2 mm 2 mps 741 mmHg 43%
    12:00 +37°C° 0.1 mm 2 mps 741 mmHg 44%
    13:00 +36°C° 0.1 mm 1 mps 740 mmHg 44%
    14:00 +36°C° 0.1 mm 1 mps 740 mmHg 45%
    15:00 +34°C° 0.3 mm 1 mps 739 mmHg 51%
    16:00 +33°C° 0.3 mm 1 mps 739 mmHg 58%
    17:00 +32°C° 0.3 mm 1 mps 739 mmHg 64%
    18:00 +30°C° 2.2 mm 2 mps 739 mmHg 70%
    19:00 +29°C° 2.2 mm 2 mps 740 mmHg 75%
    20:00 +28°C° 2.2 mm 2 mps 740 mmHg 81%
    21:00 +27°C° 3.5 mm 2 mps 740 mmHg 84%
    22:00 +27°C° 3.5 mm 2 mps 741 mmHg 86%
    23:00 +26°C° 3.5 mm 2 mps 741 mmHg 89%

    16 December, Sunday

    Time Temperature Precipitation Wind Pressure Humidity
    00:00 +26°C° 0.1 mm 2 mps 741 mmHg 89%
    01:00 +26°C° 0.1 mm 2 mps 740 mmHg 90%
    02:00 +25°C° 0.1 mm 1 mps 740 mmHg 90%
    03:00 +25°C° 0 mm 1 mps 740 mmHg 90%
    04:00 +25°C° 0 mm 1 mps 741 mmHg 90%
    05:00 +25°C° 0 mm 1 mps 741 mmHg 89%
    06:00 +27°C° 0 mm 1 mps 741 mmHg 83%
    07:00 +28°C° 0 mm 1 mps 742 mmHg 77%
    08:00 +30°C° 0 mm 2 mps 742 mmHg 70%
    09:00 +32°C° 0 mm 2 mps 742 mmHg 62%
    10:00 +35°C° 0 mm 2 mps 742 mmHg 54%
    11:00 +37°C° 0 mm 2 mps 742 mmHg 46%
    12:00 +37°C° 0 mm 2 mps 741 mmHg 45%
    13:00 +37°C° 0 mm 2 mps 740 mmHg 43%
    14:00 +37°C° 0 mm 1 mps 740 mmHg 42%
    15:00 +36°C° 0 mm 1 mps 739 mmHg 46%
    16:00 +35°C° 0 mm 1 mps 739 mmHg 49%
    17:00 +34°C° 0 mm 1 mps 739 mmHg 53%
    18:00 +33°C° 0 mm 1 mps 739 mmHg 55%
    19:00 +32°C° 0 mm 1 mps 740 mmHg 58%
    20:00 +30°C° 0 mm 1 mps 740 mmHg 60%
    21:00 +30°C° 0 mm 1 mps 740 mmHg 63%
    22:00 +29°C° 0 mm 1 mps 740 mmHg 67%
    23:00 +28°C° 0 mm 1 mps 741 mmHg 70%
    Show more